DW0830 Weather Reports


time (UTC)temp
F
wind
direction
speed
knots
gust
knots
rain 1hr
in
rain 24hr
in
rain mn
in
humidity
%
barometer
mb
20260507210154 57 90 2.6 3.5 0.00 0.01 0.01 91 1012.4
20260507205245 57 135 1.7 2.6 0.00 0.01 0.01 91 1012.4
20260507204231 58 135 2.6 3.5 0.00 0.01 0.01 90 1012.4
20260507203225 58 135 2.6 3.5 0.00 0.01 0.01 90 1012.2
20260507202210 58 135 3.5 3.5 0.00 0.01 0.01 89 1012.2
20260507201206 59 135 3.5 4.3 0.00 0.01 0.01 89 1012.2
20260507200154 59 90 2.6 3.5 0.00 0.01 0.01 89 1012.1
20260507195811 59 90 2.6 3.5 0.00 0.01 0.01 89 1012.1
20260507194655 59 135 1.7 3.5 0.00 0.01 0.01 88 1012.1
20260507193643 59 135 3.5 3.5 0.00 0.01 0.01 89 1012.3
20260507192643 59 90 1.7 1.7 0.00 0.01 0.01 89 1012.1
20260507191610 59 45 0.9 1.7 0.00 0.01 0.01 88 1011.9
20260507190606 59 0.0 0.0 0.00 0.01 0.01 87 1011.8
20260507185147 59 0.0 0.0 0.00 0.01 0.01 86 1012.0
20260507184202 59 90 0.9 1.7 0.00 0.01 0.01 85 1011.7
20260507183130 60 0.0 0.0 0.00 0.01 0.01 84 1011.7
20260507182111 60 158 2.6 3.5 0.00 0.01 0.01 83 1011.6
20260507181106 60 135 3.5 4.3 0.00 0.01 0.01 82 1011.4
20260507180213 61 180 1.7 3.5 0.00 0.01 0.01 83 1011.1
20260507175147 61 135 1.7 1.7 0.00 0.01 0.01 84 1010.9
20260507174141 61 135 3.5 3.5 0.00 0.01 0.01 85 1011.0
20260507173130 61 135 4.3 5.2 0.00 0.01 0.01 84 1011.1
20260507172119 62 135 4.3 5.2 0.00 0.01 0.01 83 1010.7
20260507171101 62 90 2.6 3.5 0.00 0.01 0.01 82 1010.6
20260507170155 62 90 1.7 2.6 0.00 0.01 0.01 81 1010.5
20260507165806 62 90 1.7 2.6 0.00 0.01 0.01 81 1010.5
20260507164654 62 135 1.7 1.7 0.00 0.01 0.01 81 1010.7
20260507163636 63 135 1.7 3.5 0.00 0.01 0.01 81 1010.9
20260507162629 63 135 3.5 4.3 0.00 0.01 0.01 80 1010.8
20260507161630 63 135 3.5 3.5 0.00 0.01 0.01 78 1010.7
20260507160607 64 180 2.6 3.5 0.00 0.01 0.01 74 1010.8
20260507155253 64 180 2.6 3.5 0.01 0.01 0.01 73 1010.6
20260507154302 64 180 3.5 4.3 0.01 0.01 0.01 75 1010.8
20260507153231 64 180 1.7 3.5 0.01 0.01 0.01 77 1010.8
20260507152210 64 180 3.5 3.5 0.01 0.01 0.01 77 1010.7
20260507151206 63 180 4.3 5.2 0.01 0.01 0.01 80 1010.7
20260507150214 63 225 3.5 5.2 0.00 0.00 0.00 77 1010.9
20260507145700 64 225 4.3 6.1 0.00 0.00 0.00 73 1010.9
20260507144648 64 270 4.3 6.1 0.00 0.00 0.00 72 1010.9
20260507143632 64 225 6.1 7.0 0.00 0.00 0.00 71 1010.8
20260507142621 65 225 7.0 7.8 0.00 0.00 0.00 70 1010.6
20260507141630 67 225 7.0 7.8 0.00 0.00 0.00 64 1010.5
20260507140606 68 270 6.1 7.0 0.00 0.00 0.00 61 1010.7
20260507135719 68 270 7.0 8.7 0.00 0.00 0.00 60 1010.4
20260507134705 68 315 2.6 3.5 0.00 0.00 0.00 60 1010.6
20260507133633 68 0 1.7 1.7 0.00 0.00 0.00 61 1010.5
20260507132623 68 225 1.7 2.6 0.00 0.00 0.00 61 1010.3
20260507131630 69 270 3.5 4.3 0.00 0.00 0.00 56 1010.5
20260507130607 69 270 2.6 3.5 0.00 0.00 0.00 55 1010.5
20260507125242 69 315 3.5 4.3 0.00 0.00 0.00 55 1010.4
20260507124232 69 270 5.2 6.1 0.00 0.00 0.00 54 1010.2
20260507123220 70 270 4.3 6.1 0.00 0.00 0.00 53 1010.3
20260507122209 70 270 7.8 9.6 0.00 0.00 0.00 53 1010.2
20260507121205 71 225 7.8 9.6 0.00 0.00 0.00 52 1010.3
20260507120213 70 225 7.0 7.8 0.00 0.00 0.00 53 1010.3
20260507115157 70 293 7.0 8.7 0.00 0.00 0.00 52 1010.6
20260507114145 71 270 4.3 6.1 0.00 0.00 0.00 52 1010.4
20260507113129 71 225 7.0 7.8 0.00 0.00 0.00 51 1010.2
20260507112118 71 270 5.2 7.0 0.00 0.00 0.00 51 1010.5
20260507111205 72 270 7.8 9.6 0.00 0.00 0.00 51 1010.2
20260507110153 72 270 5.2 7.0 0.00 0.00 0.00 52 1010.4
20260507105245 72 225 7.8 9.6 0.00 0.00 0.00 52 1010.4
20260507104231 72 180 5.2 7.0 0.00 0.00 0.00 53 1010.5
20260507103219 72 180 7.0 8.7 0.00 0.00 0.00 52 1010.5
20260507102230 71 135 3.5 5.2 0.00 0.00 0.00 54 1010.4
20260507101205 71 270 2.6 3.5 0.00 0.00 0.00 54 1010.7
20260507100213 71 270 6.1 9.6 0.00 0.00 0.00 54 1010.6
20260507095246 71 180 6.1 7.0 0.00 0.00 0.00 55 1010.6
20260507094235 70 225 7.0 9.6 0.00 0.00 0.00 59 1010.5
20260507093227 70 225 3.5 4.3 0.00 0.00 0.00 56 1010.7
20260507092209 69 270 4.3 5.2 0.00 0.00 0.00 59 1010.7
20260507091225 68 180 4.3 5.2 0.00 0.00 0.00 60 1010.8
20260507090215 68 315 7.8 8.7 0.00 0.00 0.00 63 1010.4
20260507085243 67 270 7.0 7.0 0.00 0.00 0.00 63 1010.6
20260507084252 67 225 3.5 4.3 0.00 0.00 0.00 62 1010.6
20260507083221 66 225 6.1 7.0 0.00 0.00 0.00 62 1010.5
20260507082229 66 225 2.6 3.5 0.00 0.00 0.00 62 1010.4
20260507081205 66 270 3.5 3.5 0.00 0.00 0.00 62 1010.1
20260507080254 66 270 3.5 5.2 0.00 0.00 0.00 63 1010.3
20260507075242 66 225 3.5 4.3 0.00 0.00 0.00 61 1010.2
20260507074231 67 270 1.7 3.5 0.00 0.00 0.00 62 1010.1
20260507073220 66 270 3.5 3.5 0.00 0.00 0.00 63 1010.2
20260507072229 67 225 3.5 5.2 0.00 0.00 0.00 66 1010.2
20260507071205 65 225 7.0 7.0 0.00 0.00 0.00 67 1010.1
20260507070154 64 225 5.2 7.0 0.00 0.00 0.00 69 1010.0
20260507065243 64 180 5.2 6.1 0.00 0.00 0.00 70 1009.9
20260507064232 63 180 5.2 6.1 0.00 0.00 0.00 75 1010.0
20260507063220 62 180 4.3 5.2 0.00 0.00 0.00 76 1009.9
20260507062229 62 180 7.0 8.7 0.00 0.00 0.00 79 1010.0
20260507061205 62 180 4.3 6.1 0.00 0.00 0.00 80 1009.5
20260507060153 62 180 5.2 6.1 0.00 0.00 0.00 80 1009.6
20260507055605 62 135 5.2 6.1 0.00 0.00 0.00 81 1009.7
20260507054647 62 135 4.3 6.1 0.00 0.00 0.00 81 1009.7
20260507053634 62 135 2.6 3.5 0.00 0.00 0.00 82 1009.2
20260507052622 61 135 5.2 6.1 0.00 0.00 0.00 84 1009.3
20260507051609 61 180 3.5 5.2 0.00 0.00 0.00 84 1009.0
20260507050607 60 180 1.7 2.6 0.00 0.00 0.00 83 1009.0
20260507045659 60 0.0 0.0 0.00 0.00 0.00 84 1009.2
20260507044647 60 45 1.7 2.6 0.00 0.00 0.00 85 1009.0
20260507043636 59 0.0 0.0 0.00 0.00 0.00 85 1008.5
20260507042629 59 0.0 0.0 0.00 0.00 0.00 86 1008.6
20260507041617 58 135 3.5 4.3 0.00 0.00 0.00 86 1008.8
20260507040606 58 0 0.9 1.7 0.00 0.00 0.00 85 1008.3
20260507035656 58 0.0 0.0 0.00 0.00 0.00 84 1008.3
20260507034644 57 315 1.7 1.7 0.00 0.00 0.00 84 1008.3
20260507033633 57 180 0.9 1.7 0.00 0.00 0.00 81 1008.1
20260507032620 59 135 3.5 3.5 0.00 0.00 0.00 80 1008.2
20260507031610 60 135 1.7 2.6 0.00 0.00 0.00 80 1008.1
20260507030606 60 135 3.5 4.3 0.00 0.00 0.00 81 1008.0
20260507025658 60 135 3.5 3.5 0.00 0.00 0.00 82 1008.0
20260507024647 60 135 5.2 6.1 0.00 0.00 0.00 87 1008.1
20260507023635 58 0.0 1.7 0.00 0.00 0.00 86 1007.8
20260507022628 59 45 0.9 1.7 0.00 0.00 0.00 85 1008.0
20260507021618 60 0.0 0.0 0.00 0.00 0.00 85 1008.0
20260507020605 60 180 3.5 4.3 0.00 0.00 0.00 86 1007.6
20260507005236 61 135 5.2 6.1 0.00 0.00 0.00 85 1008.1
20260507004203 61 135 5.2 6.1 0.00 0.00 0.00 85 1008.1
20260507003130 61 90 1.7 3.5 0.00 0.00 0.00 85 1008.3
20260507002119 61 45 2.6 3.5 0.00 0.00 0.00 84 1008.4
20260507001204 62 135 3.5 4.3 0.00 0.00 0.00 84 1008.5
20260507000153 62 135 1.7 2.6 0.00 0.00 0.00 84 1008.5
20260506235245 62 135 2.6 3.5 0.00 0.00 0.00 83 1008.5
20260506234233 62 180 3.5 5.2 0.00 0.00 0.00 83 1008.3
20260506233222 62 180 7.0 7.8 0.00 0.00 0.00 82 1008.6
20260506232210 63 180 7.8 9.6 0.00 0.00 0.00 82 1008.6
20260506231204 63 225 7.0 9.6 0.00 0.00 0.00 83 1008.8
20260506230153 63 180 7.8 9.6 0.00 0.00 0.00 82 1008.9
20260506225246 64 180 11.3 14.8 0.00 0.00 0.00 76 1008.7
20260506224233 64 180 7.8 8.7 0.00 0.00 0.00 77 1008.5
20260506223222 63 180 5.2 7.0 0.00 0.00 0.00 81 1008.1
20260506222211 62 180 5.2 6.1 0.00 0.00 0.00 82 1007.8
20260506221206 63 135 2.6 3.5 0.00 0.00 0.00 81 1008.0
20260506220153 63 180 2.6 3.5 0.00 0.00 0.00 80 1008.0
20260506215253 63 135 2.6 3.5 0.00 0.00 0.00 81 1007.9
20260506214241 63 135 3.5 3.5 0.00 0.00 0.00 81 1008.0
20260506213229 64 135 3.5 3.5 0.00 0.00 0.00 76 1007.8
20260506212210 64 135 4.3 4.3 0.00 0.00 0.00 74 1007.8
20260506211205 65 135 0.9 1.7 0.00 0.00 0.00 73 1007.9